| time (UTC) | temp F | wind direction | speed MPH | gust MPH | rain 1hr in | rain 24hr in | rain mn in | humidity % | barometer mb |
| 20260901033020 | 69 | 214 | 10.0 | 17.0 | 0.00 | 0.00 | 0.00 | 61 | |
| 20260901032028 | 69 | 207 | 9.0 | 12.0 | 0.00 | 0.00 | 0.00 | 60 | |
| 20260901031036 | 70 | 187 | 9.0 | 11.0 | 0.00 | 0.00 | 0.00 | 59 | |
| 20260901030026 | 70 | 213 | 9.0 | 12.0 | 0.00 | 0.00 | 0.00 | 58 | |
| 20260901025054 | 71 | 188 | 10.0 | 13.0 | 0.00 | 0.00 | 0.00 | 56 | |
| 20260901024022 | 72 | 192 | 8.0 | 13.0 | 0.00 | 0.00 | 0.00 | 55 | |
| 20260901023048 | 73 | 208 | 9.0 | 14.0 | 0.00 | 0.00 | 0.00 | 52 | |
| 20260901022019 | 74 | 198 | 9.0 | 12.0 | 0.00 | 0.00 | 0.00 | 51 | |
| 20260901021047 | 75 | 201 | 11.0 | 13.0 | 0.00 | 0.00 | 0.00 | 50 | |
| 20260901020035 | 77 | 216 | 9.0 | 13.0 | 0.00 | 0.00 | 0.00 | 48 | |
| 20260901015026 | 78 | 223 | 10.0 | 13.0 | 0.00 | 0.00 | 0.00 | 47 | |
| 20260901014031 | 79 | 221 | 10.0 | 13.0 | 0.00 | 0.00 | 0.00 | 46 | |
| 20260901013021 | 81 | 228 | 9.0 | 12.0 | 0.00 | 0.00 | 0.00 | 45 | |
| 20260901012048 | 85 | 227 | 5.0 | 11.0 | 0.00 | 0.00 | 0.00 | 37 | |
| 20260901011036 | 84 | 105 | 3.0 | 4.0 | 0.00 | 0.00 | 0.00 | 37 | |
| 20260901010026 | 85 | 150 | 3.0 | 5.0 | 0.00 | 0.00 | 0.00 | 38 | |
| 20260901005034 | 84 | 115 | 3.0 | 5.0 | 0.00 | 0.00 | 0.00 | 37 | |
| 20260901004023 | 84 | 143 | 3.0 | 4.0 | 0.00 | 0.00 | 0.00 | 37 | |
| 20260901003031 | 84 | 154 | 3.0 | 4.0 | 0.00 | 0.00 | 0.00 | 37 | |
| 20260901002021 | 84 | 164 | 4.0 | 5.0 | 0.00 | 0.00 | 0.00 | 37 | |
| 20260901001029 | 85 | 38 | 2.0 | 4.0 | 0.00 | 0.00 | 0.00 | 38 | |
| 20260901000036 | 85 | 175 | 5.0 | 7.0 | 0.00 | 0.00 | 0.00 | 37 | |
| 20260831235026 | 85 | 214 | 3.0 | 7.0 | 0.00 | 0.00 | 0.00 | 37 | |
| 20260831234114 | 85 | 138 | 3.0 | 4.0 | 0.00 | 0.00 | 0.00 | 38 | |
| 20260831233023 | 84 | 5 | 2.0 | 4.0 | 0.00 | 0.00 | 0.00 | 40 | |
| 20260831232031 | 84 | 320 | 1.0 | 3.0 | 0.00 | 0.00 | 0.00 | 39 | |
| 20260831231040 | 84 | 184 | 4.0 | 7.0 | 0.00 | 0.00 | 0.00 | 40 | |
| 20260831230048 | 84 | 258 | 4.0 | 6.0 | 0.00 | 0.00 | 0.00 | 40 | |
| 20260831225036 | 84 | 189 | 3.0 | 5.0 | 0.00 | 0.00 | 0.00 | 41 | |
| 20260831224105 | 83 | 88 | 3.0 | 5.0 | 0.00 | 0.00 | 0.00 | 40 | |
| 20260831223033 | 84 | 223 | 4.0 | 5.0 | 0.00 | 0.00 | 0.00 | 40 | |
| 20260831222022 | 82 | 106 | 3.0 | 5.0 | 0.00 | 0.00 | 0.00 | 41 | |
| 20260831221051 | 81 | 178 | 3.0 | 4.0 | 0.00 | 0.00 | 0.00 | 42 | |
| 20260831220020 | 83 | 206 | 4.0 | 6.0 | 0.00 | 0.00 | 0.00 | 41 | |
| 20260831215046 | 83 | 195 | 4.0 | 6.0 | 0.00 | 0.00 | 0.00 | 41 | |
| 20260831214036 | 80 | 98 | 2.0 | 4.0 | 0.00 | 0.00 | 0.00 | 45 | |
| 20260831213025 | 80 | 182 | 3.0 | 5.0 | 0.00 | 0.00 | 0.00 | 45 | |
| 20260831212033 | 81 | 223 | 5.0 | 8.0 | 0.00 | 0.00 | 0.00 | 44 | |
| 20260831211022 | 80 | 189 | 3.0 | 5.0 | 0.00 | 0.00 | 0.00 | 45 | |
| 20260831210050 | 79 | 125 | 4.0 | 5.0 | 0.00 | 0.00 | 0.00 | 47 |